N939TA KBNA-

Flight info

Callsign N939TA
Flight time N/A
Altitude VFR
Route
Aircraft C208/L-DOV/C

Departure

Time 2026-05-04 23:58
Airport Nashville International Airport (KBNA)

Arrival

Time N/A
Airport -
Time Latitude Longitude Altitude Speed Heading
2026-05-04 23:45 36.12055 -86.67317 578 ft 0 kts 188°
2026-05-04 23:49 36.12054 -86.67317 578 ft 0 kts 193°
2026-05-04 23:50 36.12048 -86.67335 578 ft 12 kts 288°
2026-05-04 23:50 36.12183 -86.67400 582 ft 30 kts
2026-05-04 23:50 36.12324 -86.67477 582 ft 17 kts 314°
2026-05-04 23:51 36.12422 -86.67600 583 ft 25 kts 311°
2026-05-04 23:51 36.12456 -86.67668 582 ft 0 kts 309°
2026-05-04 23:51 36.12429 -86.67685 582 ft 11 kts 193°
2026-05-04 23:52 36.12357 -86.67755 581 ft 19 kts 279°
2026-05-04 23:52 36.12386 -86.67867 579 ft 4 kts 288°
2026-05-04 23:52 36.12387 -86.67871 579 ft 0 kts 286°
2026-05-04 23:54 36.12397 -86.67911 579 ft 11 kts 287°
2026-05-04 23:54 36.12335 -86.67996 578 ft 23 kts 198°
2026-05-04 23:54 36.12054 -86.68110 578 ft 57 kts 199°
2026-05-04 23:55 36.11646 -86.68258 580 ft 61 kts 203°
2026-05-04 23:55 36.11184 -86.68456 608 ft 80 kts 199°
2026-05-04 23:55 36.10162 -86.68953 863 ft 81 kts 216°
2026-05-04 23:56 36.09871 -86.69536 973 ft 80 kts 251°
2026-05-04 23:56 36.09907 -86.70253 1027 ft 92 kts 285°
2026-05-04 23:56 36.10407 -86.70738 1186 ft 100 kts 342°
2026-05-04 23:56 36.11144 -86.70655 1184 ft 115 kts
2026-05-04 23:57 36.11951 -86.70527 1169 ft 120 kts
2026-05-04 23:57 36.12760 -86.70357 1151 ft 114 kts
2026-05-04 23:57 36.13557 -86.70248 1197 ft 120 kts 359°
2026-05-04 23:57 36.14422 -86.70168 1172 ft 124 kts 356°
2026-05-04 23:58 36.15281 -86.70103 1213 ft 124 kts 357°
2026-05-04 23:58 36.16125 -86.70233 1233 ft 120 kts 341°
2026-05-04 23:58 36.16956 -86.70403 1278 ft 123 kts 341°
2026-05-04 23:58 36.17843 -86.70590 1235 ft 139 kts 346°
2026-05-04 23:59 36.18817 -86.70807 1302 ft 144 kts 343°
2026-05-04 23:59 36.19809 -86.71101 1384 ft 149 kts 339°
2026-05-04 23:59 36.20815 -86.71468 1548 ft 155 kts 341°
2026-05-04 23:59 36.21908 -86.71711 1590 ft 162 kts 347°
2026-05-05 00:00 36.23011 -86.71855 1701 ft 160 kts 350°
2026-05-05 00:00 36.23389 -86.71889 1709 ft 162 kts 351°
2026-05-05 00:00 36.25315 -86.71984 1785 ft 169 kts 354°
2026-05-05 00:00 36.26488 -86.71964 1901 ft 168 kts 360°
2026-05-05 00:01 36.27617 -86.71619 2019 ft 170 kts 26°
2026-05-05 00:01 36.28511 -86.70630 1893 ft 177 kts 56°
2026-05-05 00:01 36.29099 -86.69326 1678 ft 165 kts 72°
2026-05-05 00:01 36.29433 -86.68021 1354 ft 155 kts 85°
2026-05-05 00:02 36.29425 -86.66786 1026 ft 125 kts 135°
2026-05-05 00:02 36.29026 -86.65881 706 ft 119 kts 126°
2026-05-05 00:02 36.28733 -86.65094 618 ft 87 kts 122°
2026-05-05 00:02 36.28579 -86.64437 483 ft 73 kts 112°
2026-05-05 00:03 36.28533 -86.63893 457 ft 53 kts 86°
2026-05-05 00:03 36.28581 -86.63618 456 ft 18 kts 70°
2026-05-05 00:03 36.28613 -86.63501 456 ft 10 kts 71°
2026-05-05 00:03 36.28627 -86.63456 456 ft 3 kts 68°
2026-05-05 00:04 36.28634 -86.63444 455 ft 1 kts 62°